Regional Weather Roundup
Issued by NWS Sioux Falls, SD

Home | Current Version | Previous Version | Text Only | Print | Product List | Glossary Off
Versions: 1 2 3 4 5 6 7 8 9 10 11 12 13 14 15 16 17 18 19 20 21 22 23 24 25 26 27 28 29 30 31 32 33 34 35 36 37 38 39 40 41 42 43 44 45 46 47 48 49 50

000
ASUS43 KFSD 301802
RWRFSD

WEATHER ROUNDUP FOR SE SOUTH DAKOTA/SW MINNESOTA/NW IOWA
NATIONAL WEATHER SERVICE SIOUX FALLS SD
100 PM CDT SAT AUG 30 2014

NOTE: "FAIR" INDICATES FEW OR NO CLOUDS BELOW 12,000 FEET WITH NO
SIGNIFICANT WEATHER AND OR OBSTRUCTIONS TO VISIBILITY.


SDZ038>040-050-052>070-301900-
SOUTHEAST SOUTH DAKOTA

CITY           SKY/WX    TMP DP  RH WIND       PRES   REMARKS
CHAMBERLAIN    SUNNY     69  58  68 SE5       29.92F
6HR MIN TEMP:  53; 6HR MAX TEMP:  69;

HURON          PTSUNNY   67  57  70 S3        29.92F
6HR MIN TEMP:  59; 6HR MAX TEMP:  68;

MADISON        CLOUDY    63  63 100 NW3       29.94S
MITCHELL       CLOUDY    64  58  80 SW7       29.95S
6HR MIN TEMP:  59; 6HR MAX TEMP:  64;

SIOUX FALLS    CLOUDY    68  60  75 NW3       29.93F
6HR MIN TEMP:  63; 6HR MAX TEMP:  69;

WINNER         FAIR      76  57  51 SE8       29.91F
YANKTON        CLOUDY    64  57  77 W8        29.95F
$$

MNZ071-072-080-081-089-090-097-098-301900-
SOUTHWEST MINNESOTA

CITY           SKY/WX    TMP DP  RH WIND       PRES   REMARKS
FAIRMONT       CLOUDY    66  61  82 W5        29.91S
JACKSON        CLOUDY    70  61  73 W5        29.92S
LUVERNE        CLOUDY    68  61  77 NW5       29.93F
MARSHALL       CLOUDY    64  59  82 NW5       29.90F
6HR MIN TEMP:  61; 6HR MAX TEMP:  64;

MONTEVIDEO     CLOUDY    68  68 100 N7        29.91S
PIPESTONE      CLOUDY    66  63  88 SW3       29.93S
REDWOOD FALLS  CLOUDY    67  63  87 W9        29.89S
TRACY          CLOUDY    65  63  91 CALM      29.92S
WINDOM         CLOUDY    68  63  83 NW3       29.92S
WORTHINGTON    PTSUNNY   68  63  83 W6        29.94S
$$

IAZ001>003-012>014-020>022-031-032-NEZ013-014-SDZ071-301900-
NORTHWEST IOWA

CITY           SKY/WX    TMP DP  RH WIND       PRES   REMARKS
CHEROKEE       CLOUDY    68  65  92 SW6       29.93F
DENISON        PTSUNNY   72  66  83 W12       29.92S
ESTHERVILLE    CLOUDY    69  64  84 N7        29.91S
LE MARS        PTSUNNY   72  63  73 W8        29.94S
ORANGE CITY    SUNNY     72  61  68 W8        29.93S
SHELDON        PTSUNNY   73  68  83 VRB7G15   29.91S
SIOUX CITY     PTSUNNY   70  59  68 NW6       29.94F
6HR MIN TEMP:  64; 6HR MAX TEMP:  71;

SPENCER        MOSUNNY   75  64  68 VRB3      29.91S
6HR MIN TEMP:  65; 6HR MAX TEMP:  75;

STORM LAKE     MOSUNNY   72  72 100 W12       29.93S
$$

ABBREVIATIONS USED IN REMARKS
   TC - TEMPERATURE IN CELSIUS
  WCI - WIND CHILL INDEX
   HX - HEAT INDEX
  VSB - VISIBILITY



USA.gov is the U.S. government's official web portal to all federal, state and local government web resources and services.